Torna al catalogo

ASTRA 5B

AttivoComunicazioniGEO
NORAD 39617·PAYLOAD·🇱🇺 Luxembourg

Lanciato Mar 22, 2014 da Guiana Space Centre

Loading…

TLE

AggiornatoSource: CelesTrak SupGP

Epoca: Sep 13, 2026, 23:30 UTC

1 39617C 14011B   26256.97916667  .00000227  00000+0  00000+0 0  2560
2 39617   0.1002 294.7831 0002898 254.7022 179.4753  1.00269513    18

Traccia ASTRA 5B in tempo reale con AllMySat

Download on the App Store